Skip Page Navigation
NASA JPL Caltech
NASA Logo - Jet Propulsion Laboratory + View the NASA Portal
+ Near-Earth Object (NEO) Program
Search JPL
JPL Home Earth Solar System Stars & Galaxies Technology
JPL Solar System Dynamics
BODIES ORBITS EPHEMERIDES TOOLS PHYSICAL DATA DISCOVERY FAQ SITE MAP
JPL Small-Body Database Browser
Search: [ help ]  
18119 Braude (2000 NZ24)
Classification: Main-belt Asteroid          SPK-ID: 2018119
Ephemeris | Orbit Diagram | Orbital Elements | Physical Parameters | Discovery Circumstances ]

[ show orbit diagram ]
Orbital Elements at Epoch 2456400.5 (2013-Apr-18.0) TDB
Reference: JPL 1 (heliocentric ecliptic J2000)
 Element Value Uncertainty (1-sigma)   Units 
e .1166815555664561 7.005e-08  
a 2.271667359028954 1.5628e-08 AU
q 2.006605677847912 1.5583e-07 AU
i .7510836092595889 6.4149e-06 deg
node 73.11494985186035 0.00051971 deg
peri 325.0364561230907 0.00052021 deg
M 178.7093737620219 3.122e-05 deg
tp 2455779.687624412662
(2011-Aug-06.18762441)
0.00010681 JED
period 1250.591675784479
3.42
1.2905e-05
3.533e-08
d
yr
n .2878637423955161 2.9705e-09 deg/d
Q 2.536729040209995 1.7451e-08 AU
  Orbit Determination Parameters
   # obs. used (total)      698  
   data-arc span      8257 days (22.61 yr)  
   first obs. used      1990-09-13  
   last obs. used      2013-04-22  
   planetary ephem.      DE405  
   SB-pert. ephem.      SB405-CPV-2  
   condition code      0  
   fit RMS      .58631  
   data source      ORB  
   producer      Otto Matic  
   solution date      2013-Apr-29 14:17:52  

Additional Information
 Earth MOID = 1.01328 AU 
 T_jup = 3.603 
[ show covariance matrix ]

Ephemeris | Orbit Diagram | Orbital Elements | Physical Parameters | Discovery Circumstances ]

Physical Parameter Table
Parameter Symbol Value Units Sigma Reference Notes
absolute magnitude H 15.6 mag n/a PDS3 (MPO 4250)  

18119 Braude           Discovered 2000 July 4 by the Lowell Observatory Near-Earth Object Search at the Anderson Mesa Station.
Semen Ya. Braude (1911-2003) was a founder of decametric radioastronomy in the former U.S.S.R. and creator of the UTR-2 decametric radio telescope. The citation was provided by L. N. Lytvynenko.
NOTE: some special characters may not display properly (any characters within {} are an attempt to place the proper accent above a character)
Reference: 20060219/MPCPages.arcLast Updated: 2010-06-03

Alternate Designations
 2000 NZ24 = 1990 RQ7 
Ephemeris | Orbit Diagram | Orbital Elements | Physical Parameters | Discovery Circumstances ]
ABOUT SSD CREDITS/AWARDS PRIVACY/COPYRIGHT GLOSSARY LINKS
FirstGov 2013-Jun-19 18:04 UT
(server date/time)  
NASA Home Page
Site Manager:   Donald K. Yeomans
Webmaster  Alan B. Chamberlin